Terug naar catalogus

CZ-6A DEB

ActiefPO
NORAD 60760·DEBRIS·🇨🇳 China

Gelanceerd Aug 6, 2024 vanaf Taiyuan Satellite Launch Center

Loading…

Volgende Passages (komende 24 uur)

TLE

VersSource: Space-Track

Epoch: Sep 14, 2026, 11:06 UTC

1 60760U 24140EK  26257.46253512  .00001071  00000-0  15026-3 0  9996
2 60760  89.0811 266.2318 0165010 269.2217  89.0091 14.67749030110334

Volg CZ-6A DEB in realtime met AllMySat

Download on the App Store